Helicity
246 360 398 357 309 253 201 184 129 117 109 98 84 85 95 98 90 96 89 93 99 100
259 358 399 354 297 249 197 150 125 109 103 90 95 104 95 85 86 96 105 102 100 97
287 346 354 347 236 198 177 139 120 109 93 97 101 95 76 83 108 109 106 101 102 106
312 376 357 278 216 186 149 131 114 99 96 96 95 84 89 112 112 99 103 108 110 106
403 364 285 239 209 162 149 124 109 98 100 102 97 99 110 107 96 92 101 114 108 110
362 268 251 224 191 158 136 118 104 102 103 104 105 100 101 90 83 91 103 101 110 125
278 245 229 203 174 146 119 112 111 109 110 101 92 95 85 80 87 95 95 110 116 124
272 234 211 187 161 135 128 120 108 104 94 96 93 91 88 86 89 92 102 105 115 127
237 206 190 165 144 135 121 103 97 91 97 90 88 96 82 89 91 95 99 107 120 136
195 187 168 151 137 122 108 90 93 98 93 86 82 90 89 87 91 107 110 110 134 163
174 168 149 133 124 122 84 97 100 91 82 76 86 80 82 85 85 103 105 125 138 133
145 136 120 125 121 85 92 97 87 76 74 77 72 88 86 85 95 110 117 117 102 109
123 127 129 109 83 104 95 89 76 71 64 73 78 80 71 90 111 123 134 118 111 93
128 125 112 105 102 98 94 79 77 69 72 81 90 84 82 95 122 140 144 132 117 104
Wind_Speed
18 16 13 10 9 8 8 12 13 19 25 30 35 41 45 49 51 53 53 55 57 59
17 15 13 9 6 5 8 8 13 20 26 32 38 44 47 50 52 53 55 58 59 61
15 14 12 8 5 4 6 9 15 22 28 35 41 45 48 51 53 57 58 60 63 65
16 15 11 7 2 4 7 13 19 25 32 38 43 47 50 54 56 59 61 62 65 68
16 13 9 5 1 5 11 17 22 29 35 40 45 49 54 58 58 61 64 66 68 71
15 12 7 2 3 8 14 20 26 32 38 43 48 53 56 58 60 63 65 67 71 74
13 9 4 1 6 12 17 24 30 36 41 46 51 54 57 60 63 64 66 68 69 73
10 5 3 5 10 15 22 28 33 38 44 49 52 55 61 62 65 67 69 69 71 73
7 4 4 8 14 19 25 31 36 42 47 52 55 59 61 64 68 68 70 74 76 77
5 3 7 12 18 24 29 34 39 45 51 54 57 60 64 67 68 69 71 75 78 80
4 6 11 16 22 28 32 38 44 48 52 56 59 62 66 69 69 69 72 75 78 79
5 9 14 20 25 31 36 41 46 50 55 59 60 63 68 71 72 72 74 76 77 78
10 14 18 23 29 34 38 44 49 53 55 58 62 63 69 72 73 77 80 79 80 80
15 18 22 27 31 36 42 47 52 56 58 59 61 66 70 72 73 78 82 84 85 82
Wind_Direction
227 223 217 223 215 250 279 307 322 330 335 338 340 342 341 340 340 341 341 339 338 336
217 208 206 205 226 269 309 329 334 336 338 339 340 340 340 339 340 341 340 338 337 335
207 194 179 192 229 285 330 338 338 338 338 339 339 339 340 340 341 339 338 337 335 335
183 178 173 188 218 316 345 342 339 338 338 338 339 340 340 340 339 337 336 336 335 334
173 175 173 184 279 348 346 345 341 340 339 340 340 341 339 337 337 336 336 335 335 334
173 172 182 182 358 351 348 345 342 340 340 340 340 338 338 338 337 336 336 335 334 334
170 175 164 49 357 350 346 342 341 341 341 340 339 339 339 338 337 337 336 335 335 334
166 160 97 8 353 348 344 343 342 341 340 341 341 340 339 338 338 336 336 335 335 334
151 120 17 1 350 346 345 343 342 341 341 340 340 340 340 339 337 337 336 335 335 334
126 54 2 353 349 345 343 344 343 342 341 340 341 341 340 339 338 337 337 336 335 335
75 11 358 351 348 347 346 344 342 342 342 341 341 342 341 340 339 338 337 337 337 336
30 10 1 354 351 348 345 344 344 343 342 342 342 343 342 341 340 339 338 338 338 337
27 13 5 358 350 349 348 345 344 343 343 343 343 344 343 343 341 339 339 340 339 338
24 13 2 357 354 350 347 346 345 344 343 344 344 344 344 344 343 341 340 339 338 338